www.pogodaiklimat.ru

Погода и климат >> Архив погоды >> Мексика >> Чойс


ПОГОДА в Чойсе

  • Прогноз погоды в Чойсе
  • Монитор погоды в Чойсе

АРХИВ ПОГОДЫ в Чойсе

Время (UTC), дата Ветер
(напр.,м/с)
 
Видим.   Явления Облачность Т
(С)
Тd
(С)
f
(%)
Тe
(С)
Тes
(С)
Комфортность P
(гПа)
Po
(гПа)
Тmin
(С)
Tmax
(С)
R
(мм)
R24
(мм)
S
(см)
15 13.01 штиль 0 30 км ясно +11.4 +8.8 84 +11 +12 1017.8 989.5
09 14.01 штиль 0 2000 м ясно +20.0 +8.2 47 +21 +21 комфорт 1016.8 989.3
12 14.01 штиль 0 2000 м ясно +19.0 +7.5 47 +19 +19 1016.7 988.4 +9.6 +29.4
15 14.01 штиль 0 30 км 4/4 600 м
[Cu hum]
+17.6 +7.6 52 +18 +18 1018.7 990.1
18 14.01 штиль 0 30 км 5/5 750 м
[Sc diur, vesp]
+18.8 +14.8 78 +20 +26 1019.2 990.7 +9.2 +20.2
21 14.01 штиль 0 30 км 10/10 750 м
[Sc diur, vesp]
+20.4 +20.6 100 +24 +24 комфорт 1015.4 987.4
00 15.01 С 1 30 км слаб. морось 10/10 300 м
[Frnb]
+18.8 +14.3 75 +21 +21 комфорт 1018.4 990.6 1
03 15.01 С 1 30 км слаб. морось 10/10 300 м
[Frnb]
+18.8 +14.3 75 +21 +21 комфорт 1018.4 990.6 1
12 15.01 штиль 0 2000 м в посл. час морось 10/10 600 м
[]
+14.0 +12.0 88 +14 +14 1017.2 989.1 5
15 15.01 штиль 0 30 км 10/10 750 м
[Sc diur, vesp]
+13.8 +11.8 88 +13 +13 1019.6 991.4
18 15.01 штиль 0 30 км 8/0
[Ci]
+20.8 +17.2 80 +24 +34 комфорт 1019.7 991.6 +13.4 +22.0
21 15.01 штиль 0 30 км 3/0
[Ci]
+27.0 +21.1 70 +34 +44 очень
душно
1016.0 988.2
00 16.01 штиль 0 30 км 3/0
[Ci]
+27.0 +21.1 70 +34 +34 очень
душно
1016.0 988.2
09 16.01 штиль 0 7000 м ясно +13.6 +11.5 87 +13 +13 1017.6 990.2
12 16.01 штиль 0 2000 м ясно +12.0 +10.6 91 +11 +11 1017.7 989.6 +11.8 +28.2
15 16.01 штиль 0 30 км ясно +11.0 +9.7 92 +10 +12 1019.3 990.8
18 16.01 С 1 30 км ясно +22.8 +18.0 74 +28 +39 душно 1019.4 991.1 +10.0 +23.2
21 16.01 С 1 30 км 3/0
[Ci]
+29.0 +22.4 68 +38 +47 очень
душно
1015.3 987.5
00 17.01 штиль 0 30 км 4/0
[Ci]
+27.8 +21.8 70 +36 +36 очень
душно
1014.7 987.3 +10.0 +30.0
09 17.01 штиль 0 7000 м 3/0
[Ci]
+13.2 +11.5 89 +13 +13 1016.5 989.2
12 17.01 штиль 0 2000 м 3/0
[Ci]
+11.8 +10.2 90 +11 +11 1016.6 988.5 +11.6 +30.0
18 17.01 ЮЗ 1 30 км 8/0
[Cs]
+20.6 +17.6 83 +25 +34 комфорт 1017.7 989.4 +10.2 +20.7
21 17.01 ЮЗ 1 30 км 6/0
[Cs]
+29.5 +22.5 66 +39 +47 очень
душно
1015.1 987.3
00 18.01 ЮЗ 1 30 км 9/0
[Cs]
+26.6 +20.2 68 +33 +33 очень
душно
1014.8 987.4 +10.2 +30.6
03 18.01 ЮЗ 1 30 км 9/0
[Cs]
+26.6 +20.2 68 +33 +33 очень
душно
1014.8 987.4 +10.2 +30.6
09 18.01 Ю 1 5000 м ясно +13.4 +11.5 88 +14 +14 1015.9 988.5
12 18.01 штиль 0 2000 м ясно +11.8 +10.2 90 +11 +11 1016.3 988.2 +11.6
15 18.01 З 1 30 км 8/0
[Cs]
+11.5 +9.9 90 +11 +12 1016.9 988.6
18 18.01 С 1 30 км ясно +23.5 +19.6 79 +29 +39 душно 1017.1 988.9 +10.1 +23.6
21 18.01 С 1 30 км ясно +30.5 +23.3 65 +41 +50 опасность
перегрева
1013.3 985.6
00 19.01 С 1 30 км ясно +30.7 +22.8 63 +41 +41 опасность
перегрева
1011.6 984.4 +10.1 +31.9
12 19.01 штиль 0 8000 м ясно +11.2 +7.9 80 +11 +11 1015.2 987.2 +7.9 +31.9

 

Местоположение метеостанции Чойс (Мексика): широта 26.73 долгота -108.20 высота над уровнем моря 238 м.

В архиве по умолчанию представлена погода в Чойсе за последнюю неделю. Архивные данные за месяц целиком и за предыдущие месяцы, начиная с января 2011 года, Вы можете получить, выбрав интересующий диапазон дат из раскрывающегося списка и нажав кнопку "Ввод!".


*Определитесь, кто Вы:
робот инопланетянин человек

Внимание! Время в таблицах - всемирное. Для получения местного времени необходимо прибавить поправку, которая равна -6 ч.

Смотрите также архив погоды в соседних городах и на ближайших метеорологических станциях:

Погода с Сьюдад-Обрегоне (Мексика) (177 км)
Погода в Кульякане (Мексика) (229 км)
Погода в Темосачи (Мексика) (250 км)
Погода в Паррале (Мексика) (259 км)
Погода в Эмпальме (Мексика) (282 км)
Погода в Тепеуанесе (Мексика) (292 км)
Погода в Гуаймасе (Мексика) (296 км)
Погода в Чихуахуа (Мексика) (303 км)
Погода в Чихуахуа университете (Мексика) (303 км)
Погода в Лорето (Мексика) (319 км)

Пояснения к столбцам:

Ветер - указаны скорость ветра в м/с - средняя за 10 мин, порывы в срок и между сроками (в фигурных скобках) и направление, откуда дует ветер: С - северный, СВ - северо-восточный, В - восточный, ЮВ - юго-восточный, Ю - южный, ЮЗ - юго-западный, З - западный, СЗ - северо-западный.
Видимость - горизонтальная дальность видимости в метрах или километрах. При видимости от 1 до 10 км при отсутствии осадков обычно наблюдается дымка, при ухудшении видимости до 1 км и менее - туман. В сухую погоду видимость может ухудшаться дымом, пылью или мглою.
Явления - указаны атмосферные явления, наблюдавшиеся в срок или в последний час перед сроком; фигурными скобками обозначены явления, наблюдавшиеся между сроками (за 1-3 часа до срока); квадратными скобками обозначены град или гололедные отложения с указанием их диаметра в мм.
Облачность - указаны через наклонную черту общая и нижняя облачность в баллах и высота нижней границы облаков в метрах; квадратными скобками обозначены формы облаков: Ci - перистые, Cs - перисто-слоистые, Cc - перисто-кучевые, Ac - высококучевые, As - высокослоистые, Sc - слоисто-кучевые, Ns - слоисто-дождевые, Cu - кучевые, Cb - кучево-дождевые. Подробнее классификацию облаков см. в Атласе облаков (PDF).
T - Температура воздуха - температура, измеренная на высоте 2 м над землей.
Td - Температура точки росы - температура, при понижении до которой содержащийся в воздухе водяной пар достигнет насыщения.
f - Относительная влажность воздуха - влажноcть воздуха, измеренная на высоте 2 м над землей.
Te - Эффективная температура - температура, которую ощущает одетый по сезону человек в тени. Характеристика душности погоды. При расчете учитывается влияние влажности воздуха и скорости ветра на теплоощущения человека.
Tes - Эффективная температура на солнце - температура, которую ощущает человек, с поправкой на солнечный нагрев. Характеристика знойности погоды. Зависит от высоты солнца над горизонтом, облачности и скорости ветра. Ночью, в пасмурную погоду, а также при ветре 12 м/с и более поправка равна нулю.
P - Атмосферное давление - приведенное к уровню моря атмосферное давление.
Po - Атмосферное давление - измеренное на уровне метеостанции атмосферное давление.
Tmin - Минимальная температура - минимум температуры воздуха на высоте 2 м над землей.
Tmax - Максимальная температура - максимум температуры воздуха на высоте 2 м над землей.
R - Количество осадков - Количество выпавших осадков за период времени, мм. При наведении курсора мыши на число - период времени, за который выпало указанное количество осадков.
R24 - Количество осадков - Количество выпавших осадков за 24 часа, мм.
S - Снежный покров - Высота снежного покрова, см. При наведении курсора мыши на число - состояние снежного покрова и степень покрытия местности в баллах.